Lapse_Rate
8.4 9.1 9.2 8.4 7.3 7.3 6.3 6.8 7.0 3.8 3.0 4.5 4.8 2.6 3.7 4.1 7.0 7.3 6.4 6.2 6.1 5.8
8.4 8.7 7.6 7.0 6.6 7.0 8.8 9.0 8.3 5.5 4.5 3.0 6.0 3.8 3.8 5.7 7.3 6.0 5.5 6.1 6.1 5.8
6.7 7.0 7.3 7.0 7.0 6.5 8.7 8.2 7.8 6.7 4.6 5.2 5.9 6.0 4.9 6.0 5.9 5.4 5.6 6.1 5.7 6.0
6.3 7.0 6.8 6.6 6.2 5.6 6.0 6.5 5.1 4.7 3.7 4.2 4.9 5.4 4.0 5.4 6.5 6.2 5.8 6.0 5.6 6.0
1.0 3.2 5.1 5.0 5.4 5.7 5.3 5.8 6.0 3.7 3.0 3.2 5.7 5.4 5.6 6.1 5.8 5.4 5.5 5.5 5.3 5.8
-0.6 0.1 0.8 4.6 5.3 5.1 6.5 6.7 5.6 5.3 2.4 2.9 6.2 6.8 5.1 5.4 5.0 5.5 5.7 5.6 5.5 5.9
-0.1 -0.9 -1.4 0.1 3.0 5.1 5.6 5.0 5.5 5.2 2.9 3.8 4.6 5.3 5.2 5.0 5.2 5.3 6.5 7.2 6.7 7.3
-0.1 -2.3 -1.0 -2.8 -1.9 -0.6 2.3 4.8 4.2 2.0 1.6 1.3 1.7 -0.1 1.5 4.0 5.4 5.5 5.2 2.4 1.7 -0.3
0.3 0.6 -0.3 -1.3 -3.1 -3.3 -3.2 -2.1 -0.7 -0.5 -0.5 -1.7 -2.8 -4.3 -3.1 0.4 3.8 2.8 2.5 1.0 -0.1 -1.7
1.3 1.5 0.9 0.5 -0.7 -0.7 -2.4 -2.9 -3.2 -3.0 -3.2 -3.8 -3.6 -3.9 -3.1 -1.8 0.8 -0.6 -1.2 -1.4 -1.2 -1.4
1.4 1.1 0.9 1.6 1.1 0.6 0.0 -1.4 -1.4 -2.8 -3.4 -3.6 -3.8 -4.3 -3.4 -3.2 -2.4 -2.7 -3.1 -3.5 -3.2 -2.8
2.2 1.9 1.9 0.8 1.1 0.8 0.8 0.6 0.3 -0.5 0.5 -2.7 -3.0 -3.1 -3.3 -3.1 -3.3 -3.8 -4.0 -3.9 -3.9 -4.0
3.2 2.6 2.5 2.5 1.9 1.4 0.4 -0.5 -0.2 -0.5 1.7 -0.7 -1.0 -1.6 -2.3 -1.7 -2.5 -2.9 -2.7 -3.1 -3.7 -3.5
3.6 3.7 3.4 3.4 2.9 2.8 2.2 0.9 -0.1 -0.6 -0.4 -0.0 0.0 0.4 0.0 -0.4 -1.2 -1.4 -1.2 -1.3 -1.8 -2.0
Wind_Speed
21 13 13 12 8 9 10 12 16 17 16 14 11 12 12 10 13 15 13 16 12 7
15 15 10 10 8 9 13 13 15 16 11 10 8 12 14 11 13 12 10 11 13 10
7 10 12 10 12 12 13 12 13 13 11 8 12 14 14 12 10 10 9 9 11 11
7 8 9 10 10 9 11 16 15 14 10 9 9 11 10 10 14 15 10 11 11 13
13 11 4 7 10 12 11 12 14 16 15 11 12 9 10 12 9 12 11 10 10 12
14 13 11 6 6 8 14 15 14 14 13 15 13 11 8 9 10 10 10 9 10 11
15 13 13 11 9 5 8 9 12 12 12 12 10 9 9 8 8 7 10 12 10 12
14 15 12 14 13 12 7 4 7 10 9 10 9 4 1 4 8 7 5 3 1 2
15 14 13 13 14 14 13 11 6 10 11 11 8 9 4 4 3 5 4 3 2 3
14 14 14 12 14 13 14 12 11 11 12 12 11 13 14 10 6 7 6 5 3 3
17 17 15 13 12 12 11 13 12 12 12 12 11 16 14 13 10 10 10 9 8 6
15 15 15 15 14 11 11 14 15 14 11 15 13 16 15 12 10 11 12 11 10 8
14 14 14 13 13 11 10 13 11 16 14 21 14 20 20 13 8 11 8 10 12 20
14 13 13 12 11 11 12 13 15 14 13 16 17 18 24 21 10 8 8 8 9 10
Wind_Direction
260 223 223 220 200 200 199 206 198 206 202 208 192 162 182 181 204 205 210 207 207 199
240 215 206 206 198 215 208 209 203 201 188 171 217 186 186 190 197 201 205 213 209 207
223 207 203 196 200 191 205 190 174 175 168 175 190 199 182 188 193 198 206 207 210 208
290 218 206 190 172 173 169 169 166 166 153 166 187 187 186 182 196 203 210 206 204 206
347 353 193 197 182 178 175 173 174 165 165 155 196 185 192 197 191 196 199 197 203 213
359 4 354 306 190 186 177 183 190 196 155 156 200 203 194 196 188 198 200 200 208 214
1 2 359 2 4 179 201 188 185 181 143 154 169 177 179 188 193 211 225 225 230 237
357 16 1 24 17 6 23 138 127 110 102 104 107 70 88 185 201 205 195 93 60 24
10 13 20 32 36 20 32 21 64 96 100 88 68 16 319 216 126 83 122 125 74 31
11 14 23 25 45 37 38 29 21 66 81 72 61 45 50 56 98 92 77 67 54 64
13 19 18 24 31 46 44 39 30 35 52 74 57 51 64 76 81 80 68 62 55 57
15 21 23 24 21 29 49 54 41 37 29 60 57 57 62 76 77 71 62 55 56 55
19 23 26 26 30 29 48 58 52 54 28 48 53 55 62 66 73 70 63 57 58 59
24 25 24 29 31 35 44 54 54 53 42 40 46 50 61 65 67 70 67 60 59 65